Volver al catálogo

GLOBALSTAR M105

ActivoComunicacionesLEO
NORAD 100331·PAYLOAD·🇺🇸 United States

Lanzado Aug 16, 2026 desde Cape Canaveral Space Force Station

Loading…

Próximos Pases (próximas 24 horas)

TLE

ActualizadoSource: Space-Track

Época: Sep 14, 2026, 14:30 UTC

1 A0331U 26185G   26257.60483673  .00000225  00000-0  79601-4 0  9994
2 A0331  51.9950 110.8855 0008844 328.2922  31.7501 14.63940762  4326

Sigue GLOBALSTAR M105 en tiempo real con AllMySat

Download on the App Store